User: anonymous   Login
Location: Melbourne
(37.8170°S, 144.9670°E)
Time: 07:06:14
(UTC+10:00)
Language:

Cosmos 1656 Rocket - Orbit

View from above orbital plane
View from above orbital plane
View from above satellite
View from above satellite

Ground track
Ground track

The orbit data is extracted from the following two-line orbital elements,

1 15772U 85042D   18172.72290466 -.00000044  00000-0  18304-5 0  9996
2 15772  71.1089 275.9744 0035858 191.9097 273.8511 14.21229898713951
Epoch (UTC): 21 June 2018 17:20:58
Eccentricity: 0.0035858
inclination: 71.1089°
perigee height: 795 km
apogee height: 847 km
right ascension of ascending node: 275.9744°
argument of perigee: 191.9097°
revolutions per day: 14.21229898
mean anomaly at epoch: 273.8511°
orbit number at epoch: 71395

The dashed part of the orbit path shows where the satellite is in the earth's shadow,  

DLR